Location: �perlecques
(50.8057°N, 2.1521°E)
Time: 18:22:02
(UTC+00:00)

CZ-2C R/B - Pass Details

Date: 09 April 2020
Orbit: 785 x 870 km, 98.3° (Epoch: 01 June)

Event Time Altitude Azimuth Distance (km) Brightness Sun altitude
Rises 20:56:16 0° 11° (N) 3,291 6.2 -20.0°
Reaches altitude 10° 20:58:39 10° 6° (N) 2,358 5.5 -20.2°
Maximum altitude 21:03:39 51° 292° (WNW) 985 3.4 -20.8°
Drops below altitude 10° 21:08:41 10° 217° (SW) 2,359 4.9 -21.4°
Sets 21:11:03 0° 213° (SSW) 3,293 5.6 -21.6°
